Date,TemperatureHighF,TemperatureAvgF,TemperatureLowF,DewpointHighF,DewpointAvgF,DewpointLowF,HumidityHigh,HumidityAvg,HumidityLow,PressureMaxIn,PressureMinIn,WindSpeedMaxMPH,WindSpeedAvgMPH,GustSpeedMaxMPH,PrecipitationSumIn
2013-6-1,75.6,58.8,42.6,54.4,43.6,36.0,91,62,25,30.23,29.97,6,0,6,0.00
2013-6-2,62.3,53.0,46.1,55.5,48.3,41.8,95,84,65,29.98,29.90,2,0,2,0.52
2013-6-3,73.8,57.6,42.8,59.3,48.7,41.5,99,75,43,30.05,29.93,5,0,5,0.00
2013-6-4,82.1,63.2,47.2,57.5,48.9,38.7,96,64,27,30.13,30.04,7,0,7,0.00
2013-6-5,83.0,67.0,47.5,62.0,50.8,42.1,91,61,29,30.06,29.94,3,0,5,0.00
2013-6-6,86.3,71.1,55.1,66.1,54.2,48.8,89,60,31,30.00,29.90,3,0,3,0.00
2013-6-7,81.3,69.1,56.0,58.4,50.0,37.8,89,55,27,29.93,29.82,10,1,10,0.00
2013-6-8,80.9,66.5,48.7,53.7,42.9,31.9,76,46,23,30.04,29.90,7,0,7,0.00
2013-6-9,77.1,64.3,49.5,52.7,42.2,30.6,85,49,19,29.92,29.84,7,0,7,0.00
2013-6-10,80.9,62.4,41.8,54.6,42.3,34.2,88,54,23,29.88,29.75,10,0,10,0.00
2013-6-11,71.8,59.4,44.2,53.5,42.2,31.6,90,57,28,30.00,29.78,7,0,7,0.00
2013-6-12,70.9,58.9,48.6,49.1,40.8,29.1,77,53,32,30.05,29.97,3,0,3,0.00
2013-6-13,71.3,55.9,43.8,48.1,42.5,33.4,90,63,39,30.06,30.00,6,0,6,0.04
2013-6-14,69.3,56.2,41.5,49.8,42.8,35.8,95,64,35,30.13,30.05,7,0,7,0.00
2013-6-15,85.1,63.8,42.9,56.2,44.6,34.4,90,57,22,30.06,29.94,6,0,7,0.00
2013-6-16,86.9,68.1,48.9,55.5,47.7,39.7,85,54,20,30.03,29.92,7,0,7,0.00
2013-6-17,88.4,71.5,59.3,61.7,52.8,47.9,74,54,27,30.01,29.83,3,0,3,0.00
2013-6-18,70.3,63.0,57.6,61.7,53.7,48.5,94,73,52,29.93,29.82,6,0,6,0.20
2013-6-19,58.3,54.4,50.9,55.2,50.8,43.8,94,88,69,29.87,29.78,5,0,5,0.31
2013-6-20,51.1,50.1,48.9,49.5,48.7,47.2,97,95,94,30.05,29.77,8,0,8,1.61
2013-6-21,69.4,55.0,49.0,57.4,50.7,46.6,98,86,52,30.10,30.04,2,0,2,0.13
2013-6-22,73.7,58.2,45.9,55.4,49.7,43.1,98,76,43,30.09,29.95,3,0,3,0.00
2013-6-23,79.8,64.7,49.8,58.6,51.7,44.4,93,67,31,29.95,29.66,6,0,6,0.00
2013-6-24,67.6,61.4,56.3,62.2,56.5,53.5,94,84,70,29.76,29.62,5,0,5,0.31
2013-6-25,71.4,60.4,49.6,64.4,55.0,48.2,98,83,62,29.90,29.75,7,0,7,0.16
2013-6-26,75.0,64.8,55.4,61.8,56.1,52.8,95,75,54,30.11,29.89,3,0,3,0.01
2013-6-27,84.2,69.6,57.0,64.9,59.5,55.0,93,72,45,30.20,30.11,6,0,6,0.00
2013-6-28,95.7,74.1,58.2,67.1,60.1,55.6,93,66,31,30.23,30.08,7,0,7,0.00
2013-6-29,77.8,69.6,61.7,67.5,62.2,57.4,92,78,62,30.11,30.00,8,0,8,0.13
2013-6-30,97.1,76.0,58.8,70.8,61.2,48.9,97,66,22,30.08,29.99,6,0,6,0.00